| time (UTC) | temp F | wind direction | speed MPH | gust MPH | rain 1hr in | rain 24hr in | rain mn in | humidity % | barometer mb |
| 20260506001519 | 62 | 117 | 0.0 | 0.0 | 0.02 | 0.02 | 0.02 | 87 | 1007.6 |
| 20260506000042 | 63 | 117 | 0.0 | 2.0 | 0.02 | 0.02 | 0.02 | 86 | 1007.8 |
| 20260505234537 | 65 | 71 | 1.0 | 2.0 | 0.02 | 0.02 | 0.02 | 79 | 1007.5 |
| 20260505230046 | 76 | 217 | 2.0 | 10.0 | 0.00 | 0.00 | 0.00 | 43 | 1005.0 |
| 20260505224534 | 77 | 182 | 1.0 | 7.0 | 0.00 | 0.00 | 0.00 | 43 | 1005.1 |
| 20260505221504 | 79 | 224 | 2.0 | 13.0 | 0.00 | 0.00 | 0.00 | 40 | 1004.5 |
| 20260505220005 | 80 | 258 | 2.0 | 13.0 | 0.00 | 0.00 | 0.00 | 33 | 1004.3 |
| 20260505214514 | 80 | 193 | 1.0 | 13.0 | 0.00 | 0.00 | 0.00 | 32 | 1004.4 |
| 20260505213012 | 80 | 194 | 3.0 | 9.0 | 0.00 | 0.00 | 0.00 | 33 | 1004.4 |
| 20260505211526 | 81 | 180 | 2.0 | 9.0 | 0.00 | 0.00 | 0.00 | 33 | 1004.0 |
| 20260505210007 | 80 | 317 | 1.0 | 8.0 | 0.00 | 0.00 | 0.00 | 34 | 1003.9 |
| 20260505204508 | 81 | 155 | 2.0 | 11.0 | 0.00 | 0.00 | 0.00 | 33 | 1004.2 |
| 20260505203015 | 82 | 158 | 4.0 | 23.0 | 0.00 | 0.00 | 0.00 | 32 | 1004.1 |
| 20260505194506 | 81 | 311 | 3.0 | 13.0 | 0.00 | 0.00 | 0.00 | 31 | 1004.5 |
| 20260505193015 | 80 | 190 | 7.0 | 21.0 | 0.00 | 0.00 | 0.00 | 32 | 1004.9 |
| 20260505191516 | 81 | 259 | 4.0 | 14.0 | 0.00 | 0.00 | 0.00 | 33 | 1004.8 |
| 20260505190019 | 81 | 173 | 5.0 | 15.0 | 0.00 | 0.00 | 0.00 | 31 | 1005.1 |
| 20260505184525 | 81 | 236 | 6.0 | 17.0 | 0.00 | 0.00 | 0.00 | 31 | 1004.9 |
| 20260505183010 | 81 | 208 | 7.0 | 16.0 | 0.00 | 0.00 | 0.00 | 31 | 1005.3 |
| 20260505181515 | 81 | 192 | 3.0 | 15.0 | 0.00 | 0.00 | 0.00 | 33 | 1005.3 |
| 20260505180018 | 82 | 212 | 4.0 | 14.0 | 0.00 | 0.00 | 0.00 | 34 | 1005.6 |
| 20260505174521 | 81 | 281 | 5.0 | 15.0 | 0.00 | 0.00 | 0.00 | 31 | 1005.5 |
| 20260505173008 | 81 | 243 | 2.0 | 14.0 | 0.00 | 0.00 | 0.00 | 35 | 1005.7 |
| 20260505171511 | 81 | 271 | 4.0 | 18.0 | 0.00 | 0.00 | 0.00 | 34 | 1005.9 |
| 20260505170021 | 80 | 225 | 5.0 | 22.0 | 0.00 | 0.00 | 0.00 | 35 | 1006.1 |
| 20260505164518 | 79 | 252 | 3.0 | 12.0 | 0.00 | 0.00 | 0.00 | 36 | 1006.2 |
| 20260505163024 | 78 | 296 | 2.0 | 9.0 | 0.00 | 0.00 | 0.00 | 41 | 1006.5 |
| 20260505153019 | 78 | 130 | 1.0 | 4.0 | 0.00 | 0.00 | 0.00 | 43 | 1007.2 |
| 20260505151525 | 77 | 184 | 2.0 | 8.0 | 0.00 | 0.00 | 0.00 | 45 | 1007.4 |
| 20260505124554 | 52 | 0.0 | 0.0 | 0.00 | 0.00 | 0.00 | 80 | 1009.2 | |
| 20260505124542 | 51 | 64 | 0.0 | 0.0 | 0.00 | 0.00 | 0.00 | 81 | 1009.1 |
| 20260505124458 | 46 | 28 | 0.0 | 2.0 | 0.00 | 0.00 | 0.00 | 88 | 1009.5 |
| 20260505124448 | 45 | 25 | 0.0 | 0.0 | 0.00 | 0.00 | 0.00 | 90 | 1009.4 |
| 20260505124445 | 44 | 25 | 0.0 | 2.0 | 0.00 | 0.00 | 0.00 | 91 | 1009.3 |
| 20260505124437 | 43 | 25 | 0.0 | 2.0 | 0.00 | 0.00 | 0.00 | 90 | 1009.2 |
| 20260505124430 | 43 | 25 | 0.0 | 0.0 | 0.00 | 0.00 | 0.00 | 91 | 1009.2 |
| 20260505124423 | 43 | 25 | 0.0 | 2.0 | 0.00 | 0.00 | 0.00 | 91 | 1009.0 |
| 20260505124419 | 43 | 351 | 0.0 | 2.0 | 0.00 | 0.00 | 0.00 | 91 | 1008.9 |
| 20260505124415 | 43 | 351 | 0.0 | 2.0 | 0.00 | 0.00 | 0.00 | 90 | 1008.5 |
| 20260505124405 | 43 | 338 | 0.0 | 2.0 | 0.00 | 0.00 | 0.00 | 90 | 1008.5 |
| 20260505124357 | 43 | 338 | 0.0 | 0.0 | 0.00 | 0.00 | 0.00 | 89 | 1008.6 |
| 20260505124347 | 44 | 338 | 0.0 | 0.0 | 0.00 | 0.00 | 0.00 | 89 | 1008.6 |
| 20260505124342 | 44 | 338 | 0.0 | 2.0 | 0.00 | 0.00 | 0.00 | 89 | 1008.7 |
| 20260505124337 | 44 | 83 | 0.0 | 0.0 | 0.00 | 0.00 | 0.00 | 88 | 1008.8 |
| 20260505124330 | 45 | 83 | 0.0 | 0.0 | 0.00 | 0.00 | 0.00 | 88 | 1009.1 |
| 20260505124323 | 45 | 83 | 0.0 | 0.0 | 0.00 | 0.00 | 0.00 | 87 | 1008.9 |
| 20260505124314 | 45 | 83 | 0.0 | 0.0 | 0.00 | 0.00 | 0.00 | 87 | 1008.9 |
| 20260505124310 | 46 | 83 | 0.0 | 0.0 | 0.00 | 0.00 | 0.00 | 86 | 1008.9 |
| 20260505124304 | 46 | 83 | 0.0 | 0.0 | 0.00 | 0.00 | 0.00 | 86 | 1008.7 |
| 20260505124256 | 46 | 360 | 0.0 | 1.0 | 0.00 | 0.00 | 0.00 | 85 | 1008.9 |
| 20260505124249 | 46 | 360 | 0.0 | 2.0 | 0.00 | 0.00 | 0.00 | 84 | 1008.9 |
| 20260505124244 | 47 | 360 | 0.0 | 2.0 | 0.00 | 0.00 | 0.00 | 83 | 1008.9 |
| 20260505124235 | 47 | 360 | 0.0 | 2.0 | 0.00 | 0.00 | 0.00 | 82 | 1009.1 |
| 20260505124231 | 48 | 360 | 0.0 | 2.0 | 0.00 | 0.00 | 0.00 | 81 | 1009.1 |
| 20260505124225 | 48 | 360 | 0.0 | 2.0 | 0.00 | 0.00 | 0.00 | 80 | 1009.2 |
| 20260505124213 | 48 | 360 | 0.0 | 1.0 | 0.00 | 0.00 | 0.00 | 79 | 1009.4 |
| 20260505124210 | 49 | 360 | 0.0 | 2.0 | 0.00 | 0.00 | 0.00 | 78 | 1009.4 |
| 20260505124204 | 49 | 360 | 0.0 | 2.0 | 0.00 | 0.00 | 0.00 | 1009.3 | |
| 20260505124155 | 50 | 360 | 0.0 | 1.0 | 0.00 | 0.00 | 0.00 | 76 | 1009.5 |
| 20260505124149 | 50 | 360 | 0.0 | 2.0 | 0.00 | 0.00 | 0.00 | 75 | 1009.3 |
| 20260505124142 | 51 | 336 | 0.0 | 2.0 | 0.00 | 0.00 | 0.00 | 74 | 1009.3 |
| 20260505124133 | 51 | 322 | 0.0 | 2.0 | 0.00 | 0.00 | 0.00 | 74 | 1009.3 |
| 20260505124127 | 51 | 333 | 0.0 | 1.0 | 0.00 | 0.00 | 0.00 | 72 | 1009.2 |
| 20260505124121 | 52 | 329 | 0.0 | 0.0 | 0.00 | 0.00 | 0.00 | 70 | 1009.1 |
| 20260505124113 | 53 | 329 | 0.0 | 0.0 | 0.00 | 0.00 | 0.00 | 67 | 1009.0 |
| 20260505124108 | 54 | 331 | 0.0 | 2.0 | 0.00 | 0.00 | 0.00 | 66 | 1009.0 |
| 20260505124100 | 55 | 151 | 0.0 | 3.0 | 0.00 | 0.00 | 0.00 | 63 | 1008.9 |
| 20260505124056 | 56 | 329 | 0.0 | 2.0 | 0.00 | 0.00 | 0.00 | 62 | 1008.9 |
| 20260505124047 | 57 | 304 | 1.0 | 3.0 | 0.00 | 0.00 | 0.00 | 58 | 1008.8 |
| 20260505020024 | 59 | 132 | 1.0 | 3.0 | 0.00 | 0.00 | 0.00 | 56 | 1008.5 |
| 20260505014526 | 59 | 221 | 1.0 | 5.0 | 0.00 | 0.00 | 0.00 | 55 | 1008.4 |
| 20260505013025 | 58 | 239 | 1.0 | 3.0 | 0.00 | 0.00 | 0.00 | 56 | 1008.5 |
| 20260505011528 | 58 | 52 | 0.0 | 2.0 | 0.00 | 0.00 | 0.00 | 58 | 1008.3 |
| 20260505010028 | 59 | 272 | 1.0 | 2.0 | 0.00 | 0.00 | 0.00 | 55 | 1008.1 |
| 20260505004524 | 61 | 57 | 0.0 | 2.0 | 0.00 | 0.00 | 0.00 | 51 | 1007.7 |
| 20260505003012 | 63 | 229 | 0.0 | 2.0 | 0.00 | 0.00 | 0.00 | 47 | 1007.7 |